Regional Weather Roundup
Issued by NWS Charleston, SC

Current Version | Previous Version | Graphics & Text | Print | Product List | Glossary On
Versions: 1 2 3 4 5 6 7 8 9 10 11 12 13 14 15 16 17 18 19 20 21 22 23 24 25 26 27 28 29 30 31 32 33 34 35 36 37 38 39 40 41 42 43 44 45 46 47 48 49 50
000
ASUS42 KCHS 230012
RWRCHS

REGIONAL WEATHER ROUNDUP
NATIONAL WEATHER SERVICE CHARLESTON SC
800 PM EDT SAT JUL 22 2017

NOTE: "FAIR" INDICATES FEW OR NO CLOUDS BELOW 12,000 FEET WITH NO
SIGNIFICANT WEATHER AND/OR OBSTRUCTIONS TO VISIBILITY.

NOT ALL STATIONS ARE QUALITY CONTROLLED. USE DATA WITH CAUTION...
ESPECIALLY DEWPOINT OBSERVATIONS.

SCZ027-030-031-034>040-042>050-230100-
...SOUTHEAST SOUTH CAROLINA...

CITY           SKY/WX    TMP DP  RH WIND       PRES   REMARKS
N CHARLESTON   FAIR      84  72  67 S10       29.96S
6HR MIN TEMP:  84; 6HR MAX TEMP:  92;

WATERFRONT PRK   N/A     85  77  76 SW9       29.95S HX  95
JOHNS ISLAND   FAIR      84  75  74 SW10      29.97S HX  92
PINOPOLIS        N/A     90  77  66 SW5       29.88R HX 102
MONCKS CORNER  FAIR      84  73  70 S7        29.95S HX  91
SUMMERVILLE    FAIR      86  75  70 S6        29.97R HX  95
BEAUFORT MCAS  FAIR      86  76  71 S12G21    29.96F HX  96
6HR MIN TEMP:  86; 6HR MAX TEMP:  94;

BEAUFORT ARPT  FAIR      84  72  65 S10G18    29.96S
HILTON HEAD IS NOT AVBL
WALTERBORO     FAIR      86  75  70 S9        29.96S HX  95
ALLENDALE      NOT AVBL

...SOUTHERN MIDLANDS AND PEE DEE...

CITY           SKY/WX    TMP DP  RH WIND       PRES   REMARKS
GEORGETOWN     FAIR      81  77  89 S7        29.97R
KINGSTREE      FAIR      86  73  66 S3        29.93S HX  93
ORANGEBURG     FAIR      87  73  62 S8        29.94S HX  94
6HR MIN TEMP:  87; 6HR MAX TEMP:  93;

BARNWELL       FAIR      91  77  62 S6        29.95S HX 105
AIKEN          FAIR      86  73  66 S7        29.98S HX  93
MANNING        FAIR      88  72  58 SW8       29.94S HX  94
COLUMBIA       FAIR      91  73  55 S8        29.92S HX  99
6HR MIN TEMP:  91; 6HR MAX TEMP:  96;

SUMTER         NOT AVBL
FLORENCE       FAIR      88  74  63 S8        29.93R HX  96
6HR MIN TEMP:  88; 6HR MAX TEMP:  93;

MYRTLE BEACH   CLEAR     84  75  74 S17       29.95R HX  92
N MYRTLE BEACH FAIR      82  77  84 SW18      29.94R HX  90
6HR MIN TEMP:  82; 6HR MAX TEMP:  87;


$$

GAZ063-065-086>088-099>101-113>116-118-119-134>141-150-230100-
...SOUTHEAST GEORGIA...

CITY           SKY/WX    TMP DP  RH WIND       PRES   REMARKS
SAVANNAH ARPT  FAIR      86  73  65 SW13      29.97S HX  93
6HR MIN TEMP:  86; 6HR MAX TEMP:  92;

HUNTER AAF     NOT AVBL
FORT STEWART   NOT AVBL
STATESBORO     FAIR      89  73  60 SW3       29.95S HX  97
SYLVANIA       FAIR      86  78  75 CALM      29.96S HX  98
CLAXTON        MOCLDY    88  76  66 CALM      29.96R HX  99

...CSRA...CENTRAL AND FAR SOUTHEAST GEORGIA...

CITY           SKY/WX    TMP DP  RH WIND       PRES   REMARKS
THOMSON        FAIR      88  74  63 W5        29.99S HX  96
AUGUSTA-BUSH   FAIR      90  75  61 S7        29.93R HX 100
6HR MIN TEMP:  90; 6HR MAX TEMP:  95;

AUGUSTA-DANIEL FAIR      92  70  48 S10       29.94S HX  97
SWAINSBORO     FAIR      79  77  94 CALM      29.97S
VIDALIA        FAIR      90  73  58 SW5       29.96S HX  98
EASTMAN        FAIR      90  62  39 SW3       29.98S HX  90
HAZLEHURST     FAIR      89  77  67 CALM      29.95S HX 101
ALMA           FAIR      86  75  69 S5        29.97R HX  95
6HR MIN TEMP:  86; 6HR MAX TEMP:  94;

WAYCROSS       FAIR      87  80  80 S7        29.98R HX 101
JESUP          NOT AVBL
BAXLEY         FAIR      86  82  89 S6        29.96S HX 105
BRUNSWICK      FAIR      81  73  78 SW7       29.99S
SAINT SIMONS   FAIR      81  74  79 SW12      29.98R
6HR MIN TEMP:  81; 6HR MAX TEMP:  91;


$$

SCZ027-028-034-036>038-045-046-048>050-GAZ119-141-230100-
...LAKE AND SUPPLEMENTAL COASTAL OBSERVATIONS...

STATION/POSITION TIME  TEMP    WIND        PRES    WAVE   SWELL
                       AIR SEA DIR/SP/G            HT/PER HT/PER/DIR
                 (UTC) (F)     (DEG/KT/KT) (MB)    (FT/S) (FT/S/D)
WINYAH BAY       2245   86     200/ 14     1014.0
LAKE MURRAY      NOT AVBL
ACE BASIN NERRS  2245   87     180/  2     1015.0
FORT PULASKI     2348          210/ 11/ 16   N/A
SAPELO ISLAND    2300   86     200/ 10     1015.0

$$

ANZ835-935-AMZ111-154-330-350-352-354-370-450-454-472-230100-
...C-MAN AND BUOY OBSERVATIONS...

STATION/POSITION TIME  TEMP    WIND        PRES    WAVE   SWELL
                       AIR SEA DIR/SP/G            HT/PER HT/PER/DIR
                 (UTC) (F)     (DEG/KT/KT) (MB)    (FT/S) (FT/S/D)
BUOY 41004       2350   83 84  210/ 17/ 21 1014.4F   4/ 9   3/120/ 9
BUOY 41008       2350   81 83  220/ 12/ 14 1014.6F   3/ 4   2/130/10
FOLLY BEACH CMAN 0000   84     210/ 16/ 19 1015.5S
CAPERS NEARSHORE 2308   81 84  220/ 17/ 23 1014.2F
FRIPP NEARSHORE  2308   84 85  200/ 16/ 21 1013.9F


STATION/POSITION TIME  TEMP    WIND        PRES    WAVE   SWELL
                       AIR SEA DIR/SP/G            HT/PER HT/PER/DIR
                 (UTC) (F)     (DEG/KT/KT) (MB)    (FT/S) (FT/S/D)
5E ST. MARYS GA  2330      83                N/A     2/10
FRYING PAN BUOY  2350   83 84  210/ 17/ 21 1014.1R   3/ 8   2/150/ 8
BUOY 41025       2350   83 81  230/ 19/ 23 1012.5R   5/ 5   2/140/ 9
CAPE LOOKOUT NC  0000   82     220/ 10/ 13 1013.4R
BUOY 41002       2250   84 84  220/ 14/ 17 1016.5    4/10   3/ 90/10
BUOY 41010       2350   84 85  220/ 10/ 14 1017.9R   3/ 8   2/ 80/ 8
ST AUGUSTINE FL  0000   75 81  190/  7/  8 1016.8F


$$




USA.gov is the U.S. government's official web portal to all federal, state and local government web resources and services.